Regional Weather Roundup
Issued by NWS Green Bay, WI

Home | Current Version | Previous Version | Graphics & Text | Print | Product List | Glossary Off
Versions: 1 2 3 4 5 6 7 8 9 10 11 12 13 14 15 16 17 18 19 20 21 22 23 24 25 26 27 28 29 30 31 32 33 34 35 36 37 38 39 40 41 42 43 44 45 46 47 48 49 50

000
ASUS43 KGRB 290600
RWRGRB

NORTH-CENTRAL AND NORTHEAST WISCONSIN REGIONAL WEATHER ROUNDUP
NATIONAL WEATHER SERVICE GREEN BAY WI
100 AM CDT FRI APR 29 2016

WIZ005-009-010>012-018-019-290700-
NORTH CENTRAL WISCONSIN

CITY           SKY/WX    TMP DP  RH WIND       PRES   REMARKS
IRONWOOD       PTCLDY    34  27  75 CALM      30.08S
MANITOWISH WTR NOT AVBL
ARBOR VITAE    NOT AVBL
EAGLE RIVER    NOT AVBL
LAND O LAKES   NOT AVBL
RHINELANDER    CLOUDY    37  35  92 CALM      30.10F
PHILLIPS       CLOUDY    40  34  77 S9        30.09S
ANTIGO         NOT AVBL
TOMAHAWK       NOT AVBL
MERRILL        NOT AVBL
$$

WIZ013-073-290700-
NORTHEAST WISCONSIN

CITY           SKY/WX    TMP DP  RH WIND       PRES   REMARKS
IRON MOUNTAIN  CLOUDY    40  25  55 CALM      30.09S
MARINETTE      CLOUDY    43  27  52 NE7       30.09S
$$

WIZ017-030-035>037-045-290700-
CENTRAL WISCONSIN

CITY           SKY/WX    TMP DP  RH WIND       PRES   REMARKS
MEDFORD        NOT AVBL
WAUSAU         CLOUDY    39  36  89 CALM      30.09S
MOSINEE        NOT AVBL
MARSHFIELD     CLOUDY    38  35  89 NE10      30.08S
WISC RAPIDS    CLOUDY    38  34  85 NE9       30.10S
STEVENS POINT  NOT AVBL
WAUPACA        CLOUDY    41  36  82 N6        30.08F
SHAWANO        RAIN      42  37  81 N8        30.09S
CLINTONVILLE   NOT AVBL
WAUTOMA        CLOUDY    38  34  85 MISG      30.08R
$$

WIZ038-039-048-051-290700-
FOX VALLEY

CITY           SKY/WX    TMP DP  RH WIND       PRES   REMARKS
NWS GREEN BAY  CLOUDY    42  33  70 N8        30.07S
APPLETON       NOT AVBL
OSHKOSH        CLOUDY    41  33  73 N7        30.05F
FOND DU LAC    CLOUDY    42  34  73 NE9       30.05F
$$

WIZ022-050-052-290700-
EAST CENTRAL WISCONSIN

CITY           SKY/WX    TMP DP  RH WIND       PRES   REMARKS
EPHRAIM        NOT AVBL
STURGEON BAY   CLOUDY    41  32  70 S5        30.10F
MANITOWOC      NOT AVBL
SHEBOYGAN      CLOUDY    40  34  79 NE7       30.05S
$$

LMZ563-521-522-541>543-290700-
LAKESHORE

STATION/POSITION TIME  TEMP    WIND        PRES    VSBY  WAVE
                       AIR SEA DIR/SP/G                  HT/PER
                 (UTC) (F)     (DEG/KT/KT) (MB)    (MI)  (FT/S)
SHEBOYGAN LKSHOR 0500   40      50/  8/ 10 1018.5F
KEWAUNEE LKSHORE 0500   41      30/  6/  8 1017.6F
ALGOMA MARINA    0515           70/  9/ 11   N/A
NORTHPORT PIER   0500   42      40/  7/ 10 1019.0S
N MID LAKE BUOY  0450   40 38   50/  8/  8 1019.1R         1/ 3
CHAMBERS ISLAND  0500   41      30/  6/ 12 1019.3S
MENOMINEE LKSHOR 0500   42      20/ 12/ 14 1017.9R
$$




USA.gov is the U.S. government's official web portal to all federal, state and local government web resources and services.